South Beach, OR

10:39 AM PDT on August 30, 2016 (GMT -0700)
Newport Municipal

Weather History for KONP - November, 2010

Change the Weather History Date:

Tuesday, November 16, 2010

  Actual Average Record
Temperature  
Mean Temperature 50 °F -  
Max Temperature 55 °F 52 °F 68 °F (2008)
Min Temperature 46 °F 43 °F 33 °F (2014)
Degree Days  
Heating Degree Days 14    
Moisture  
Dew Point 46 °F    
Average Humidity 84    
Maximum Humidity 93    
Minimum Humidity 72    
Precipitation  
Precipitation 0.01 in - - ()
Sea Level Pressure  
Sea Level Pressure 30.28 in    
Wind  
Wind Speed 9 mph (NW)    
Max Wind Speed 16 mph    
Max Gust Speed 25 mph    
Visibility 7 miles    
Events Rain    
Averages and records for this station are not official NWS values.
T = Trace of Precipitation, MM = Missing Value Source: NWS Daily Summary

Daily Weather History Graph

Daily Weather History Graph

Search for Another Location

Airport or City:

Trip Planner

Search our weather history database for the weather conditions in past years. The results will help you decide how hot, cold, wet, or windy it might be!

Date:

Astronomy

Nov. 16, 2010 Rise Set
Actual Time 7:14 AM PST 4:47 PM PST
Civil Twilight 6:42 AM PST 5:19 PM PST
Nautical Twilight 6:07 AM PST 5:54 PM PST
Astronomical Twilight 5:32 AM PST 6:28 PM PST
Moon 2:05 PM PST (11/16) 2:11 AM PST (11/16)
Length of Visible Light 10h 36m
Length of Day
9h 33m
Waxing Gibbous, 78% of the Moon is Illuminated
Nov 16
Waxing Gibbous
Nov 21
Full
Nov 28
Last Quarter
Dec 5
New
Dec 13
First Quarter

Hourly Weather History & Observations

Time (PST) Temp. Windchill Dew Point Humidity Pressure Visibility Wind Dir Wind Speed Gust Speed Precip Events Conditions
12:11 AM 53.6 °F - 46.4 °F 77% 30.22 in 7.0 mi WNW 12.7 mph 20.7 mph N/A   Overcast
12:31 AM 53.6 °F - 48.2 °F 82% 30.22 in 7.0 mi NW 12.7 mph 18.4 mph N/A   Overcast
12:51 AM 53.6 °F - 46.4 °F 77% 30.23 in 7.0 mi NW 12.7 mph 20.7 mph N/A   Overcast
1:11 AM 51.8 °F - 46.4 °F 82% 30.22 in 7.0 mi NW 13.8 mph 19.6 mph N/A   Scattered Clouds
1:51 AM 51.8 °F - 44.6 °F 76% 30.22 in 7.0 mi NW 16.1 mph 21.9 mph N/A   Scattered Clouds
2:11 AM 53.6 °F - 44.6 °F 72% 30.22 in 7.0 mi NW 16.1 mph 21.9 mph N/A   Mostly Cloudy
2:31 AM 53.6 °F - 44.6 °F 72% 30.23 in 7.0 mi WNW 9.2 mph - N/A   Overcast
2:51 AM 51.8 °F - 46.4 °F 82% 30.24 in 7.0 mi WNW 10.4 mph - N/A   Overcast
3:11 AM 51.8 °F - 46.4 °F 82% 30.24 in 7.0 mi WNW 15.0 mph 20.7 mph N/A   Overcast
3:31 AM 50.0 °F - 46.4 °F 87% 30.25 in 5.0 mi WNW 11.5 mph 20.7 mph N/A Rain Light Rain
3:51 AM 51.8 °F - 46.4 °F 82% 30.25 in 7.0 mi WNW 11.5 mph 17.3 mph N/A   Overcast
4:11 AM 51.8 °F - 46.4 °F 82% 30.26 in 7.0 mi WNW 13.8 mph 20.7 mph N/A   Overcast
4:31 AM 51.8 °F - 46.4 °F 82% 30.26 in 7.0 mi WNW 13.8 mph 25.3 mph N/A   Overcast
4:51 AM 51.8 °F - 44.6 °F 76% 30.27 in 7.0 mi WNW 6.9 mph - N/A   Overcast
5:12 AM 51.8 °F - 46.4 °F 82% 30.28 in 5.0 mi NW 13.8 mph 20.7 mph N/A Rain Rain
5:31 AM 51.8 °F - 46.4 °F 82% 30.28 in 7.0 mi WNW 11.5 mph - N/A   Overcast
5:51 AM 51.8 °F - 46.4 °F 82% 30.28 in 7.0 mi WNW 6.9 mph - N/A   Overcast
6:11 AM 51.8 °F - 46.4 °F 82% 30.29 in 7.0 mi WNW 12.7 mph 16.1 mph N/A   Mostly Cloudy
6:31 AM 51.8 °F - 46.4 °F 82% 30.29 in 7.0 mi NW 8.1 mph - N/A   Mostly Cloudy
6:51 AM 51.8 °F - 46.4 °F 82% 30.30 in 7.0 mi WNW 9.2 mph - N/A   Mostly Cloudy
7:11 AM 50.0 °F - 46.4 °F 87% 30.30 in 7.0 mi WNW 5.8 mph - N/A   Light Drizzle
7:31 AM 50.0 °F - 46.4 °F 87% 30.31 in 5.0 mi West 5.8 mph - N/A   Mostly Cloudy
7:51 AM 51.8 °F - 48.2 °F 88% 30.31 in 4.0 mi WNW 6.9 mph - N/A   Overcast
8:11 AM 51.8 °F - 48.2 °F 88% 30.32 in 5.0 mi WNW 5.8 mph - N/A   Overcast
8:31 AM 51.8 °F - 46.4 °F 82% 30.32 in 4.0 mi NW 9.2 mph - N/A   Overcast
8:51 AM 51.8 °F - 46.4 °F 82% 30.32 in 5.0 mi NNW 6.9 mph - N/A   Haze
9:11 AM 53.6 °F - 48.2 °F 82% 30.33 in 4.0 mi NW 10.4 mph 16.1 mph N/A   Haze
9:31 AM 51.8 °F - 48.2 °F 88% 30.33 in 3.0 mi NNW 10.4 mph 16.1 mph 0.01 in   Haze
9:51 AM 51.8 °F - 48.2 °F 88% 30.34 in 5.0 mi NNE 4.6 mph - 0.01 in   Overcast
10:11 AM 51.8 °F - 48.2 °F 88% 30.34 in 7.0 mi Calm Calm - N/A   Overcast
10:31 AM 51.8 °F - 48.2 °F 88% 30.33 in 7.0 mi Calm Calm - N/A   Overcast
10:51 AM 53.6 °F - 48.2 °F 82% 30.33 in 5.0 mi Calm Calm - N/A   Haze
11:11 AM 53.6 °F - 48.2 °F 82% 30.33 in 2.5 mi NNW 4.6 mph - N/A   Haze
11:31 AM 53.6 °F - 46.4 °F 77% 30.33 in 4.0 mi NNW 3.5 mph - N/A   Haze
11:51 AM 53.6 °F - 48.2 °F 82% 30.33 in 4.0 mi North 8.1 mph - N/A   Haze
12:11 PM 53.6 °F - 46.4 °F 77% 30.32 in 5.0 mi North 10.4 mph - N/A   Haze
12:31 PM 53.6 °F - 46.4 °F 77% 30.32 in 5.0 mi North 5.8 mph - N/A   Haze
12:51 PM 53.6 °F - 46.4 °F 77% 30.31 in 5.0 mi North 6.9 mph - N/A   Haze
1:11 PM 53.6 °F - 44.6 °F 72% 30.31 in 5.0 mi North 4.6 mph - N/A   Haze
1:31 PM 53.6 °F - 46.4 °F 77% 30.30 in 5.0 mi North 5.8 mph - N/A   Haze
1:51 PM 55.4 °F - 46.4 °F 72% 30.29 in 5.0 mi NW 6.9 mph - N/A   Haze
2:11 PM 53.6 °F - 46.4 °F 77% 30.29 in 4.0 mi North 6.9 mph - N/A   Haze
2:32 PM 53.6 °F - 46.4 °F 77% 30.29 in 4.0 mi NW 12.7 mph - N/A   Haze
2:51 PM 51.8 °F - 46.4 °F 82% 30.30 in 5.0 mi NNW 12.7 mph - N/A   Overcast
3:11 PM 51.8 °F - 46.4 °F 82% 30.29 in 5.0 mi North 9.2 mph - N/A   Haze
3:31 PM 50.0 °F - 46.4 °F 87% 30.29 in 5.0 mi North 6.9 mph - N/A   Overcast
3:51 PM 50.0 °F - 46.4 °F 87% 30.29 in 5.0 mi North 6.9 mph - N/A   Overcast
4:11 PM 50.0 °F - 46.4 °F 87% 30.29 in 7.0 mi NE 3.5 mph - N/A   Overcast
4:31 PM 50.0 °F - 46.4 °F 87% 30.29 in 7.0 mi Calm Calm - N/A   Overcast
4:51 PM 48.2 °F - 46.4 °F 93% 30.29 in 7.0 mi Calm Calm - N/A   Overcast
5:11 PM 48.2 °F - 46.4 °F 93% 30.27 in 10.0 mi SE 3.5 mph - N/A   Overcast
5:31 PM 48.2 °F - 46.4 °F 93% 30.27 in 10.0 mi SE 3.5 mph - N/A   Overcast
5:51 PM 48.2 °F - 46.4 °F 93% 30.27 in 10.0 mi Calm Calm - N/A   Overcast
6:11 PM 48.2 °F - 46.4 °F 93% 30.25 in 10.0 mi SSE 4.6 mph - N/A   Overcast
6:51 PM 46.4 °F - 44.6 °F 93% 30.23 in 10.0 mi Calm Calm - N/A   Overcast
7:11 PM 46.4 °F - 44.6 °F 93% 30.24 in 10.0 mi Calm Calm - N/A   Overcast
7:31 PM 46.4 °F - 44.6 °F 93% 30.24 in 10.0 mi Calm Calm - N/A   Overcast
7:51 PM 46.4 °F 45.2 °F 44.6 °F 93% 30.23 in 10.0 mi SSE 3.5 mph - N/A   Overcast
8:11 PM 46.4 °F - 44.6 °F 93% 30.24 in 10.0 mi Calm Calm - N/A   Overcast
8:31 PM 46.4 °F - 44.6 °F 93% 30.23 in 10.0 mi Calm Calm - N/A   Overcast
8:51 PM 46.4 °F 44.3 °F 44.6 °F 93% 30.21 in 10.0 mi SE 4.6 mph - N/A   Overcast
9:11 PM 46.4 °F 45.2 °F 44.6 °F 93% 30.21 in 10.0 mi East 3.5 mph - N/A   Overcast
9:31 PM 46.4 °F 45.2 °F 44.6 °F 93% 30.20 in 10.0 mi SE 3.5 mph - N/A   Overcast
9:51 PM 48.2 °F - 44.6 °F 87% 30.19 in 10.0 mi SE 4.6 mph - N/A   Overcast
10:11 PM 46.4 °F 44.3 °F 44.6 °F 93% 30.17 in 10.0 mi SE 4.6 mph - N/A   Mostly Cloudy
10:31 PM 44.6 °F 42.2 °F 42.8 °F 93% 30.17 in 10.0 mi SE 4.6 mph - N/A   Scattered Clouds
10:51 PM 46.4 °F 44.3 °F 42.8 °F 87% 30.16 in 10.0 mi SE 4.6 mph - N/A   Scattered Clouds
11:11 PM 44.6 °F 41.4 °F 42.8 °F 93% 30.15 in 10.0 mi SE 5.8 mph - N/A   Scattered Clouds
11:31 PM 44.6 °F 40.7 °F 41.0 °F 87% 30.13 in 10.0 mi SSE 6.9 mph - N/A   Scattered Clouds
11:51 PM 44.6 °F 42.2 °F 41.0 °F 87% 30.13 in 10.0 mi SE 4.6 mph - N/A   Clear